User: anonymous   Login
Location: Mount Kobau Star Party
(49.1167°N, 119.7333°W)
Time: 17:02:06
(UTC-07:00)
Language:

TSX-5 - Orbit

View from above orbital plane
View from above orbital plane
View from above satellite
View from above satellite

Ground track
Ground track

The orbit data is extracted from the following two-line orbital elements,

1 26374U 00030A   17082.92709420 +.00005077 +00000-0 +43284-3 0  9999
2 26374 068.9333 352.8648 0649379 010.9861 350.4663 14.04769421844129
Epoch (UTC): 23 March 2017 22:15:00
Eccentricity: 0.0649379
inclination: 68.9333°
perigee height: 406 km
apogee height: 1348 km
right ascension of ascending node: 352.8648°
argument of perigee: 10.9861°
revolutions per day: 14.04769421
mean anomaly at epoch: 350.4663°
orbit number at epoch: 84412

The dashed part of the orbit path shows where the satellite is in the earth's shadow,  

DLR